Hourly Weather Homnabad

Today, 16 April, Friday

Time Temperature Precipitation Wind Pressure Humidity
00:00 +30°C° 0 mm 1 mps 703 mmHg 35%
01:00 +29°C° 0 mm 2 mps 703 mmHg 39%
02:00 +28°C° 0 mm 2 mps 702 mmHg 43%
03:00 +28°C° 0 mm 2 mps 702 mmHg 46%
04:00 +27°C° 0 mm 2 mps 703 mmHg 50%
05:00 +27°C° 0 mm 2 mps 703 mmHg 56%
06:00 +28°C° 0 mm 2 mps 703 mmHg 51%
07:00 +29°C° 0 mm 2 mps 704 mmHg 46%
08:00 +30°C° 0 mm 2 mps 705 mmHg 41%
09:00 +32°C° 0 mm 2 mps 705 mmHg 35%
10:00 +33°C° 0 mm 1 mps 705 mmHg 29%
11:00 +35°C° 0 mm 1 mps 705 mmHg 21%
12:00 +37°C° 0 mm 2 mps 704 mmHg 19%
13:00 +38°C° 0 mm 3 mps 703 mmHg 17%
14:00 +40°C° 0 mm 4 mps 702 mmHg 15%
15:00 +40°C° 0 mm 4 mps 702 mmHg 15%
16:00 +40°C° 0 mm 4 mps 702 mmHg 15%
17:00 +39°C° 0 mm 5 mps 702 mmHg 15%
18:00 +38°C° 0 mm 4 mps 702 mmHg 16%
19:00 +37°C° 0 mm 3 mps 703 mmHg 18%
20:00 +36°C° 0 mm 3 mps 703 mmHg 19%
21:00 +35°C° 0 mm 3 mps 703 mmHg 20%
22:00 +34°C° 0 mm 3 mps 703 mmHg 21%
23:00 +33°C° 0 mm 3 mps 703 mmHg 23%

Tomorrow, 17 April, Saturday

Time Temperature Precipitation Wind Pressure Humidity
00:00 +33°C° 0 mm 3 mps 703 mmHg 24%
01:00 +31°C° 0 mm 3 mps 702 mmHg 25%
02:00 +31°C° 0 mm 3 mps 702 mmHg 27%
03:00 +30°C° 0 mm 3 mps 702 mmHg 32%
04:00 +30°C° 0 mm 3 mps 703 mmHg 37%
05:00 +29°C° 0 mm 4 mps 703 mmHg 42%
06:00 +30°C° 0 mm 4 mps 704 mmHg 41%
07:00 +32°C° 0 mm 5 mps 704 mmHg 40%
08:00 +33°C° 0 mm 5 mps 705 mmHg 39%
09:00 +35°C° 0 mm 4 mps 705 mmHg 33%
10:00 +36°C° 0 mm 3 mps 705 mmHg 27%
11:00 +38°C° 0 mm 2 mps 705 mmHg 22%
12:00 +38°C° 0 mm 2 mps 704 mmHg 20%
13:00 +39°C° 0 mm 2 mps 704 mmHg 18%
14:00 +40°C° 0 mm 3 mps 703 mmHg 16%
15:00 +40°C° 0 mm 3 mps 703 mmHg 16%
16:00 +40°C° 0 mm 3 mps 703 mmHg 16%
17:00 +39°C° 0 mm 3 mps 702 mmHg 15%
18:00 +39°C° 0 mm 3 mps 703 mmHg 17%
19:00 +38°C° 0 mm 3 mps 704 mmHg 18%
20:00 +37°C° 0 mm 2 mps 704 mmHg 19%
21:00 +37°C° 0 mm 2 mps 704 mmHg 20%
22:00 +36°C° 0 mm 2 mps 704 mmHg 22%
23:00 +34°C° 0 mm 1 mps 704 mmHg 23%

Day after tomorrow, 18 April, Sunday

Time Temperature Precipitation Wind Pressure Humidity
00:00 +34°C° 0 mm 1 mps 704 mmHg 24%
01:00 +34°C° 0 mm 1 mps 704 mmHg 24%
02:00 +33°C° 0 mm 1 mps 703 mmHg 25%
03:00 +33°C° 0 mm 1 mps 703 mmHg 28%
04:00 +32°C° 0 mm 2 mps 704 mmHg 30%
05:00 +31°C° 0 mm 2 mps 704 mmHg 33%
06:00 +33°C° 0 mm 3 mps 705 mmHg 33%
07:00 +34°C° 0 mm 3 mps 705 mmHg 33%
08:00 +35°C° 0 mm 3 mps 706 mmHg 33%
09:00 +36°C° 0 mm 3 mps 706 mmHg 29%
10:00 +37°C° 0 mm 2 mps 706 mmHg 25%
11:00 +39°C° 0 mm 2 mps 705 mmHg 21%
12:00 +39°C° 0 mm 2 mps 705 mmHg 19%
13:00 +40°C° 0 mm 2 mps 704 mmHg 17%
14:00 +41°C° 0 mm 2 mps 703 mmHg 15%
15:00 +40°C° 0 mm 3 mps 703 mmHg 15%
16:00 +41°C° 0 mm 4 mps 702 mmHg 14%
17:00 +41°C° 0 mm 4 mps 702 mmHg 13%
18:00 +39°C° 0 mm 3 mps 703 mmHg 16%
19:00 +38°C° 0 mm 3 mps 703 mmHg 18%
20:00 +37°C° 0 mm 2 mps 704 mmHg 21%
21:00 +36°C° 0 mm 2 mps 704 mmHg 23%
22:00 +36°C° 0 mm 2 mps 704 mmHg 25%
23:00 +35°C° 0 mm 2 mps 704 mmHg 27%

19 April, Monday

Time Temperature Precipitation Wind Pressure Humidity
00:00 +35°C° 0 mm 2 mps 703 mmHg 28%
01:00 +34°C° 0 mm 3 mps 703 mmHg 30%
02:00 +34°C° 0 mm 3 mps 702 mmHg 31%
03:00 +32°C° 0 mm 2 mps 702 mmHg 34%
04:00 +31°C° 0 mm 2 mps 702 mmHg 37%
05:00 +31°C° 0 mm 2 mps 702 mmHg 41%
06:00 +32°C° 0 mm 2 mps 703 mmHg 34%
07:00 +35°C° 0 mm 3 mps 704 mmHg 27%
08:00 +36°C° 0 mm 3 mps 704 mmHg 20%
09:00 +38°C° 0 mm 4 mps 704 mmHg 17%
10:00 +40°C° 0 mm 4 mps 704 mmHg 14%
11:00 +41°C° 0 mm 5 mps 704 mmHg 11%
12:00 +42°C° 0 mm 4 mps 703 mmHg 11%
13:00 +42°C° 0 mm 4 mps 703 mmHg 11%
14:00 +43°C° 0 mm 3 mps 702 mmHg 10%
15:00 +43°C° 0 mm 3 mps 702 mmHg 10%
16:00 +42°C° 0 mm 3 mps 701 mmHg 10%
17:00 +42°C° 0 mm 3 mps 701 mmHg 11%
18:00 +42°C° 0 mm 3 mps 701 mmHg 11%
19:00 +40°C° 0 mm 2 mps 702 mmHg 12%
20:00 +39°C° 0 mm 2 mps 702 mmHg 13%
21:00 +38°C° 0 mm 2 mps 702 mmHg 14%
22:00 +37°C° 0 mm 2 mps 702 mmHg 15%
23:00 +37°C° 0 mm 2 mps 702 mmHg 15%

20 April, Tuesday

Time Temperature Precipitation Wind Pressure Humidity
00:00 +36°C° 0 mm 4 mps 702 mmHg 18%
01:00 +35°C° 0 mm 5 mps 701 mmHg 21%
02:00 +34°C° 0 mm 6 mps 701 mmHg 24%
03:00 +33°C° 0 mm 5 mps 701 mmHg 24%
04:00 +33°C° 0 mm 4 mps 701 mmHg 24%
05:00 +32°C° 0 mm 4 mps 702 mmHg 24%
06:00 +33°C° 0 mm 4 mps 702 mmHg 22%
07:00 +34°C° 0 mm 5 mps 703 mmHg 20%
08:00 +35°C° 0 mm 6 mps 704 mmHg 18%
09:00 +38°C° 0 mm 6 mps 704 mmHg 17%
10:00 +39°C° 0 mm 6 mps 704 mmHg 15%
11:00 +41°C° 0 mm 6 mps 703 mmHg 14%
12:00 +41°C° 0 mm 5 mps 703 mmHg 13%
13:00 +42°C° 0 mm 4 mps 702 mmHg 13%
14:00 +43°C° 0 mm 4 mps 701 mmHg 12%
15:00 +42°C° 0 mm 3 mps 701 mmHg 12%
16:00 +42°C° 0 mm 3 mps 701 mmHg 12%
17:00 +42°C° 0 mm 3 mps 701 mmHg 12%
18:00 +40°C° 0 mm 3 mps 701 mmHg 13%
19:00 +39°C° 0 mm 2 mps 701 mmHg 14%
20:00 +39°C° 0 mm 2 mps 702 mmHg 15%
21:00 +38°C° 0 mm 2 mps 702 mmHg 16%
22:00 +37°C° 0 mm 2 mps 702 mmHg 16%
23:00 +37°C° 0 mm 2 mps 702 mmHg 17%

21 April, Wednesday

Time Temperature Precipitation Wind Pressure Humidity
00:00 +36°C° 0 mm 2 mps 702 mmHg 19%
01:00 +36°C° 0 mm 3 mps 702 mmHg 21%
02:00 +35°C° 0 mm 3 mps 701 mmHg 22%
03:00 +35°C° 0 mm 3 mps 702 mmHg 24%
04:00 +34°C° 0 mm 3 mps 702 mmHg 26%
05:00 +33°C° 0 mm 3 mps 703 mmHg 28%
06:00 +34°C° 0 mm 4 mps 703 mmHg 25%
07:00 +35°C° 0 mm 5 mps 704 mmHg 22%
08:00 +36°C° 0 mm 6 mps 705 mmHg 19%
09:00 +38°C° 0 mm 6 mps 705 mmHg 17%
10:00 +40°C° 0 mm 7 mps 705 mmHg 16%
11:00 +41°C° 0 mm 7 mps 704 mmHg 14%
12:00 +42°C° 0 mm 6 mps 704 mmHg 14%
13:00 +43°C° 0 mm 5 mps 703 mmHg 13%
14:00 +43°C° 0 mm 4 mps 702 mmHg 13%
15:00 +41°C° 0.1 mm 5 mps 702 mmHg 18%
16:00 +38°C° 0.1 mm 7 mps 702 mmHg 24%
17:00 +34°C° 0.1 mm 8 mps 702 mmHg 29%
18:00 +35°C° 0 mm 7 mps 702 mmHg 27%
19:00 +35°C° 0 mm 5 mps 703 mmHg 25%
20:00 +35°C° 0 mm 4 mps 703 mmHg 23%
21:00 +35°C° 0 mm 4 mps 704 mmHg 23%
22:00 +35°C° 0 mm 4 mps 704 mmHg 23%
23:00 +35°C° 0 mm 3 mps 704 mmHg 23%
Show more